[[{"header":{"parameterUnit":"m.s-1","parameterCategory":1,"la1":30.2991,"la2":30.254,"lo1":-89.0895,"lo2":-89.0444,"dy":0.0017,"dx":0.0017,"nx":28,"ny":28,"refTime":"2024-07-16T21:00:00:Z","depth":0,"parameterNumber":2,"parameterNumberName":"U-component_of_WINDS"},"data":[0,0,0,0,0,0,0,0,0,0,0,0,0,0,0,0,0,0,0,0,0,0,0,0,0,0,0,0,0,0,0,0,0,0,0,0,0,0,0,0,0,0,0,0,0,0,0,0,0,0,0,0,0,0,0,0,0,0,3.6087,3.6089,0,3.6217,3.6218,3.622,3.6188,3.6186,3.6183,3.6181,3.6312,3.6318,3.6324,0,0,0,0,0,0,0,0,0,0,0,0,0,3.5809,3.5814,3.6087,3.6089,3.609,3.6216,3.6218,3.622,3.6189,3.6186,3.6182,3.618,3.631,3.6317,3.6324,0,0,0,0,0,0,0,0,0,0,0,0,0,3.5933,3.5816,3.6087,3.609,3.6091,3.6216,3.6218,3.622,3.6189,3.6185,3.6182,3.6178,3.6308,3.6317,3.6325,3.6455,0,0,3.6352,3.6356,0,0,0,0,0,0,0,0,3.5926,3.5944,3.6088,3.609,3.6092,3.6182,3.6168,3.6299,3.619,3.6152,3.6181,3.6176,3.6272,3.6284,3.6316,3.6461,3.6466,3.6353,3.6358,3.6362,3.6364,0,0,0,0,0,0,0,3.5918,3.5938,3.6138,3.609,3.6092,3.6084,3.6097,3.6193,3.6232,3.6155,3.6153,3.6169,3.6272,3.6308,3.6319,3.6468,3.6353,3.636,3.6366,3.6369,3.672,3.6724,0,0,0,0,0,0,3.5908,3.5931,3.6134,3.6142,3.5998,3.6092,3.6107,3.6157,3.623,3.6238,3.6172,3.6167,3.6295,3.6309,3.6323,3.6476,3.6362,3.637,3.6375,3.6716,3.6721,3.6726,0,0,0,0,0,0,3.5902,3.5926,3.6129,3.6036,3.6061,3.6101,3.6157,3.6162,3.6197,3.6243,3.625,3.6201,3.6292,3.6311,3.6421,3.648,3.6374,3.6382,3.6711,3.6718,3.6723,3.6784,0,0,0,0,0,0,3.5894,3.5924,3.5975,3.6037,3.6066,3.6226,3.6161,3.6167,3.6212,3.6207,3.6272,3.6279,3.6291,3.6408,3.643,3.649,3.6389,3.6706,3.6714,3.6721,3.6777,3.6791,3.6804,0,0,0,0,0,3.5884,3.5988,3.5978,3.6002,3.613,3.6229,3.6246,3.6257,3.6217,3.6267,3.6296,3.6277,3.6471,3.642,3.6444,3.6508,3.6703,3.6712,3.6721,3.6771,3.6788,3.6803,0,0,0,0,0,0,3.5932,3.5996,3.5986,3.6113,3.6166,3.6224,3.6287,3.6276,3.6341,3.6333,3.6344,3.6359,3.647,3.6501,3.6443,3.6634,3.6581,3.6595,3.661,3.6628,3.6641,3.663,3.6396,0,0,0,0,0,3.5957,3.6032,3.6084,3.6191,3.6218,3.6248,3.6292,3.6296,3.6351,3.6373,3.6411,3.6464,3.6536,3.6584,3.6654,3.6782,3.6793,3.6837,3.6851,3.6861,3.6873,3.6938,3.6957,3.6756,3.6756,3.6755,0,0,3.601,3.6054,3.6101,3.6202,3.6243,3.6319,3.6268,3.6352,3.6407,3.6386,3.6491,3.652,3.6581,3.6699,3.6753,3.6727,3.6931,3.6873,3.6881,3.6887,3.695,3.6968,3.6985,3.6762,3.6761,3.676,0,0,3.6144,3.6187,3.6278,3.632,3.6383,3.6402,3.6424,3.6484,3.6502,3.6608,3.6592,3.6658,3.6784,3.6826,3.6864,3.7011,3.6995,3.7034,3.7103,3.7167,3.7183,3.7197,3.7245,3.7263,3.7046,3.7046,3.7046,0,3.6201,3.6316,3.6327,3.6411,3.6454,3.6437,3.6528,3.6569,3.6652,3.6681,3.6651,3.6806,3.6846,3.6971,3.7007,3.704,3.7062,3.7025,3.718,3.7194,3.7207,3.7253,3.7272,3.705,3.705,3.7049,3.7049,0,3.6381,3.6461,3.6527,3.6606,3.6657,3.6745,3.6766,3.6816,3.6815,3.6837,3.6942,3.6989,3.7066,3.7097,3.7098,3.7222,3.7203,3.7177,3.7123,3.723,3.7274,3.7292,3.7056,3.7054,3.7053,3.7052,0,0,3.6549,3.6631,3.6655,3.6688,3.6755,3.6817,3.6902,3.6977,3.7017,3.7075,3.7144,3.725,3.7225,3.7268,3.7273,3.7329,3.7437,3.7295,3.7297,3.7317,3.7572,3.7589,3.761,3.7427,3.7431,3.7434,3.7566,0,3.6686,3.6837,3.6847,3.6982,3.7054,3.7038,3.7112,3.716,3.7182,3.7245,3.7269,3.7341,3.7305,3.733,3.7385,3.7412,3.7488,3.7403,3.7489,3.7492,3.7471,3.7633,3.7652,3.7774,3.7583,3.7586,3.7588,0,3.6867,3.6928,3.707,3.7123,3.7153,3.722,3.7286,3.7348,3.7401,3.7413,3.7459,3.7456,3.7541,3.7485,3.7601,3.7543,3.7579,3.7597,3.7602,3.7608,3.7545,3.764,3.7814,3.7831,3.7616,3.7614,3.7612,0,3.697,3.7088,3.7187,3.7217,3.7283,3.7329,3.7358,3.7408,3.745,3.7509,3.7536,3.7605,3.7641,3.7693,3.7707,3.7666,3.7821,3.7767,3.783,3.783,3.7861,3.7859,3.804,3.789,3.789,3.789,3.7889,0,3.712,3.7207,3.7233,3.7294,3.7389,3.74,3.7493,3.752,3.7563,3.7627,3.7619,3.7679,3.7695,3.7757,3.7768,3.786,3.7878,3.7887,3.7888,3.7886,3.7884,3.7908,3.7898,3.7895,3.7894,3.7893,3.7892,0,3.7251,3.7273,3.7379,3.7431,3.7447,3.7514,3.7558,3.7615,3.7635,3.7716,3.7735,3.7766,3.7839,3.7858,3.7946,3.7953,3.8059,3.8055,3.8041,3.804,3.81,3.8092,3.83,3.8326,3.8163,3.8164,3.8166,0,3.7344,3.741,3.7469,3.751,3.7541,3.761,3.7653,3.7665,3.771,3.7773,3.7822,3.7893,3.7951,3.8067,3.8096,3.8162,3.8156,3.8224,3.8166,3.816,3.8152,3.8147,3.8152,3.8235,3.8236,3.8238,3.8239,0,3.7505,3.7512,3.7574,3.764,3.7691,3.7743,3.7793,3.7828,3.7847,3.7897,3.7971,3.8015,3.8103,3.8172,3.8238,3.8267,3.8255,3.8257,3.8274,3.8271,3.8259,3.8262,3.8067,3.8252,3.8251,3.825,3.8249,3.8248,3.7617,3.7673,3.7722,3.7791,3.783,3.7876,3.7931,3.7956,3.8018,3.809,3.8093,3.8172,3.822,3.8307,3.8339,3.84,3.8379,3.8405,3.8411,3.8416,3.8419,3.8252,3.8412,3.8412,3.8412,3.8411,3.8411,0,3.7775,3.7805,3.7868,3.7937,3.799,3.7975,3.8029,3.8074,3.8143,3.8189,3.8245,3.8327,3.8394,3.8428,3.8494,3.8535,3.8531,3.8552,3.8547,3.8553,3.8436,3.8413,3.8553,3.8553,3.8553,3.8553,3.8553,3.8553,3.7863,3.7955,3.7967,3.8077,3.8107,3.8183,3.8214,3.8256,3.8292,3.8384,3.8439,3.8461,3.8501,3.8569,3.8628,3.8636,3.8659,3.8682,3.8687,3.8576,3.8562,3.8548,3.8526,3.8687,3.8688,3.8798,3.8799,3.8799]},{"header":{"parameterUnit":"m.s-1","parameterCategory":1,"la1":30.2991,"la2":30.254,"lo1":-89.0895,"lo2":-89.0444,"dy":0.0017,"dx":0.0017,"nx":28,"ny":28,"refTime":"2024-07-16T21:00:00:Z","depth":0,"parameterNumber":3,"parameterNumberName":"V-component_of_WINDS"},"data":[0,0,0,0,0,0,0,0,0,0,0,0,0,0,0,0,0,0,0,0,0,0,0,0,0,0,0,0,0,0,0,0,0,0,0,0,0,0,0,0,0,0,0,0,0,0,0,0,0,0,0,0,0,0,0,0,0,0,1.0717,1.0718,0,1.0739,1.0739,1.074,1.071,1.0709,1.0708,1.0707,1.0731,1.0733,1.0735,0,0,0,0,0,0,0,0,0,0,0,0,0,1.065,1.0652,1.0717,1.0718,1.0718,1.0739,1.074,1.074,1.071,1.0709,1.0707,1.0706,1.0731,1.0733,1.0735,0,0,0,0,0,0,0,0,0,0,0,0,0,1.0677,1.0652,1.0717,1.0706,1.0705,1.0739,1.074,1.074,1.071,1.0709,1.0707,1.0706,1.073,1.0732,1.0735,1.0783,0,0,1.0743,1.0744,0,0,0,0,0,0,0,0,1.0675,1.0679,1.0707,1.0706,1.0705,1.072,1.0725,1.0754,1.0711,1.0708,1.0707,1.0705,1.0729,1.0731,1.0739,1.0784,1.0785,1.0743,1.0744,1.0745,1.0746,0,0,0,0,0,0,0,1.0674,1.0678,1.0726,1.0707,1.0707,1.0699,1.0701,1.073,1.0728,1.0708,1.0706,1.0709,1.0728,1.0737,1.074,1.0785,1.0743,1.0745,1.0746,1.0747,1.0869,1.087,0,0,0,0,0,0,1.0673,1.0677,1.0725,1.0727,1.0686,1.0702,1.0704,1.0717,1.0727,1.0727,1.071,1.0708,1.0733,1.0737,1.074,1.0796,1.0745,1.0748,1.0749,1.0867,1.0869,1.0871,0,0,0,0,0,0,1.0672,1.0678,1.0724,1.0701,1.0707,1.0705,1.072,1.0718,1.0727,1.0729,1.0728,1.072,1.0732,1.0737,1.0772,1.0796,1.0749,1.0751,1.0865,1.0867,1.087,1.0908,0,0,0,0,0,0,1.067,1.0677,1.0695,1.0702,1.0708,1.0756,1.0721,1.072,1.0731,1.0728,1.0737,1.0737,1.0731,1.0768,1.0774,1.0799,1.0753,1.0863,1.0866,1.0869,1.0905,1.0912,1.0918,0,0,0,0,0,1.0668,1.0706,1.0696,1.0702,1.073,1.0757,1.0761,1.0752,1.0733,1.0751,1.0752,1.0737,1.0793,1.0772,1.0779,1.0804,1.0861,1.0865,1.0869,1.0902,1.091,1.0917,0,0,0,0,0,0,1.0704,1.0707,1.0696,1.0738,1.0747,1.0752,1.0775,1.0762,1.0778,1.0774,1.0764,1.0766,1.0803,1.0807,1.0785,1.085,1.0824,1.0829,1.0846,1.0855,1.0861,1.0859,1.0755,0,0,0,0,0,1.0716,1.0737,1.0739,1.0775,1.0781,1.0777,1.0788,1.0781,1.0791,1.0795,1.0798,1.0809,1.0828,1.0842,1.086,1.0905,1.0906,1.0926,1.0932,1.0938,1.0942,1.0965,1.0974,1.0884,1.0884,1.0883,0,0,1.0743,1.0747,1.0761,1.0783,1.0789,1.0811,1.078,1.0805,1.0822,1.0799,1.0832,1.0834,1.0845,1.0885,1.0903,1.089,1.0967,1.0942,1.0947,1.0949,1.097,1.0979,1.0986,1.0886,1.0886,1.0885,0,0,1.0802,1.0808,1.0838,1.0845,1.0855,1.0852,1.0859,1.0865,1.0866,1.0899,1.0881,1.0901,1.0935,1.0943,1.0952,1.1013,1.0999,1.1019,1.1053,1.1076,1.1083,1.1089,1.111,1.1118,1.1024,1.1024,1.1024,0,1.0835,1.0866,1.0856,1.0881,1.0891,1.087,1.0901,1.0908,1.0924,1.0931,1.0915,1.0957,1.0963,1.1004,1.1019,1.1027,1.1034,1.1018,1.1083,1.1089,1.1094,1.1114,1.1123,1.1026,1.1026,1.1026,1.1026,0,1.0905,1.0927,1.0951,1.0965,1.0977,1.1006,1.0999,1.1013,1.1004,1.1003,1.1036,1.1042,1.106,1.107,1.1062,1.1109,1.11,1.1084,1.1057,1.1105,1.1124,1.1132,1.103,1.1029,1.1028,1.1027,0,0,1.0989,1.0996,1.1004,1.101,1.1019,1.1036,1.1063,1.108,1.1091,1.1103,1.1125,1.1153,1.1138,1.1148,1.114,1.116,1.1207,1.1141,1.1141,1.1153,1.1259,1.1271,1.128,1.1198,1.1199,1.12,1.1257,0,1.1048,1.1093,1.1084,1.1129,1.1149,1.1128,1.1151,1.1159,1.1158,1.1175,1.1175,1.1195,1.1173,1.1179,1.1197,1.1197,1.1228,1.1193,1.1218,1.1219,1.1216,1.129,1.1303,1.1356,1.1265,1.1266,1.1267,0,1.1123,1.1136,1.1182,1.1186,1.1194,1.1215,1.1229,1.1246,1.1254,1.1252,1.1262,1.1251,1.1277,1.1249,1.1285,1.1262,1.1271,1.1273,1.1275,1.1277,1.1246,1.1293,1.1373,1.1381,1.1278,1.1277,1.1277,0,1.1179,1.1207,1.1238,1.1244,1.125,1.1265,1.1268,1.1274,1.1285,1.1297,1.1304,1.132,1.1329,1.1341,1.1334,1.1315,1.1371,1.1343,1.137,1.137,1.1383,1.1383,1.1466,1.139,1.139,1.139,1.139,0,1.1245,1.1275,1.1263,1.1283,1.1314,1.1303,1.1335,1.1336,1.1341,1.136,1.1344,1.1362,1.1352,1.1369,1.1364,1.1394,1.1399,1.1398,1.1396,1.1399,1.1399,1.1405,1.1401,1.1392,1.1391,1.1391,1.1391,0,1.1313,1.1307,1.1339,1.1341,1.1342,1.1366,1.1368,1.1385,1.1383,1.1407,1.1412,1.1408,1.1427,1.1421,1.1443,1.1439,1.1477,1.1471,1.1474,1.1473,1.15,1.1497,1.159,1.1601,1.1518,1.1519,1.152,0,1.1356,1.1378,1.1382,1.1393,1.1397,1.1415,1.1425,1.1414,1.1426,1.1436,1.1452,1.147,1.1484,1.1516,1.1515,1.1531,1.1525,1.1556,1.1527,1.1529,1.1525,1.1523,1.1525,1.1562,1.1563,1.1564,1.1564,0,1.1433,1.1428,1.1443,1.1457,1.1469,1.1479,1.1488,1.1498,1.1488,1.1502,1.1521,1.1531,1.1552,1.157,1.1584,1.1588,1.1574,1.1573,1.158,1.1584,1.1584,1.1584,1.149,1.1571,1.157,1.157,1.157,1.1569,1.1489,1.1507,1.1512,1.1529,1.1534,1.1542,1.1559,1.1557,1.1573,1.1589,1.1581,1.1603,1.161,1.1627,1.1633,1.165,1.1638,1.1648,1.1651,1.1653,1.1656,1.1581,1.1652,1.1652,1.1652,1.1652,1.1652,0,1.1564,1.1566,1.1581,1.1594,1.1607,1.1592,1.1601,1.1613,1.1632,1.1639,1.1652,1.1674,1.1691,1.1691,1.1706,1.172,1.1714,1.1724,1.1723,1.1724,1.1667,1.1659,1.1729,1.1729,1.1728,1.1728,1.1728,1.1728,1.1605,1.1634,1.1629,1.1661,1.1662,1.1683,1.1689,1.1697,1.1702,1.1726,1.174,1.1739,1.1743,1.1759,1.1773,1.1773,1.1779,1.1792,1.1789,1.1736,1.1728,1.1721,1.1713,1.1793,1.1794,1.1845,1.1845,1.1846]}]]